TimeCST,TemperatureF,Dew PointF,Humidity,Sea Level PressureIn,VisibilityMPH,Wind Direction,Wind SpeedMPH,Gust SpeedMPH,PrecipitationIn,Events,Conditions,WindDirDegrees,DateUTC
12:15 AM,20.3,9.7,64,30.17,10.0,NW,4.6,-,N/A,,Clear,310,2013-02-16 06:15:00
12:35 AM,19.9,10.4,67,30.17,10.0,NW,5.8,-,N/A,,Clear,310,2013-02-16 06:35:00
12:55 AM,19.4,10.0,67,30.16,10.0,NW,6.9,-,N/A,,Clear,310,2013-02-16 06:55:00
1:15 AM,19.2,10.4,69,30.16,10.0,NW,4.6,-,N/A,,Clear,320,2013-02-16 07:15:00
1:35 AM,18.5,9.5,68,30.16,10.0,NW,5.8,-,N/A,,Clear,310,2013-02-16 07:35:00
1:55 AM,18.7,10.0,69,30.16,10.0,NW,5.8,-,N/A,,Mostly Cloudy,320,2013-02-16 07:55:00
2:15 AM,18.1,9.9,70,30.16,10.0,NW,5.8,-,N/A,,Scattered Clouds,320,2013-02-16 08:15:00
2:35 AM,18.0,9.7,70,30.16,10.0,NW,4.6,-,N/A,,Mostly Cloudy,320,2013-02-16 08:35:00
2:55 AM,17.4,9.0,69,30.15,10.0,NNW,4.6,-,N/A,,Scattered Clouds,340,2013-02-16 08:55:00
3:15 AM,17.6,8.6,68,30.15,10.0,NNW,8.1,-,N/A,,Mostly Cloudy,340,2013-02-16 09:15:00
3:35 AM,16.3,7.3,68,30.15,10.0,NNW,6.9,-,N/A,,Scattered Clouds,330,2013-02-16 09:35:00
3:55 AM,16.0,7.2,68,30.15,10.0,NW,6.9,-,N/A,,Clear,320,2013-02-16 09:55:00
4:15 AM,15.3,5.7,66,30.15,10.0,NNW,5.8,-,N/A,,Clear,330,2013-02-16 10:15:00
4:35 AM,14.9,6.3,69,30.15,10.0,NW,3.5,-,N/A,,Clear,320,2013-02-16 10:35:00
4:55 AM,15.8,6.8,68,30.16,10.0,NW,4.6,-,N/A,,Clear,310,2013-02-16 10:55:00
5:15 AM,14.0,6.8,73,30.16,10.0,NW,4.6,-,N/A,,Clear,310,2013-02-16 11:15:00
5:35 AM,14.0,5.0,67,30.16,10.0,NW,4.6,-,N/A,,Clear,310,2013-02-16 11:35:00
5:55 AM,14.0,5.0,67,30.16,10.0,NW,4.6,-,N/A,,Clear,310,2013-02-16 11:55:00
6:15 AM,13.6,5.0,68,30.16,10.0,NW,4.6,-,N/A,,Clear,310,2013-02-16 12:15:00
6:35 AM,14.0,5.0,67,30.16,10.0,Calm,Calm,-,N/A,,Clear,0,2013-02-16 12:35:00
6:55 AM,13.1,5.4,71,30.17,10.0,NW,3.5,-,N/A,,Clear,310,2013-02-16 12:55:00
7:15 AM,14.0,5.0,67,30.17,10.0,Calm,Calm,-,N/A,,Clear,0,2013-02-16 13:15:00
7:35 AM,14.9,5.4,66,30.17,10.0,NW,4.6,-,N/A,,Clear,320,2013-02-16 13:35:00
7:55 AM,15.4,5.4,64,30.17,10.0,NW,3.5,-,N/A,,Clear,310,2013-02-16 13:55:00
8:35 AM,16.9,4.6,59,30.18,10.0,NW,4.6,-,N/A,,Clear,310,2013-02-16 14:35:00
8:55 AM,17.4,5.2,59,30.18,10.0,NNW,5.8,-,N/A,,Clear,340,2013-02-16 14:55:00
9:15 AM,18.3,4.1,54,30.17,10.0,NW,6.9,-,N/A,,Clear,320,2013-02-16 15:15:00
9:35 AM,18.5,4.1,54,30.17,10.0,NW,8.1,-,N/A,,Clear,320,2013-02-16 15:35:00
12:15 PM,20.5,4.6,50,30.14,10.0,NW,8.1,16.1,N/A,,Overcast,320,2013-02-16 18:15:00
12:35 PM,21.0,5.0,50,30.13,10.0,WNW,12.7,19.6,N/A,,Overcast,290,2013-02-16 18:35:00
12:55 PM,21.9,6.1,51,30.13,10.0,WNW,10.4,-,N/A,,Overcast,290,2013-02-16 18:55:00
1:15 PM,21.9,6.3,51,30.12,10.0,WNW,10.4,16.1,N/A,,Overcast,300,2013-02-16 19:15:00
1:35 PM,22.6,6.1,49,30.12,10.0,WNW,10.4,19.6,N/A,,Overcast,290,2013-02-16 19:35:00
1:55 PM,22.6,6.6,50,30.11,10.0,West,13.8,-,N/A,,Overcast,280,2013-02-16 19:55:00
2:35 PM,21.6,8.1,56,30.11,10.0,NW,8.1,-,N/A,,Overcast,320,2013-02-16 20:35:00
2:55 PM,21.6,8.2,57,30.11,10.0,NW,8.1,-,N/A,,Overcast,320,2013-02-16 20:55:00
3:15 PM,21.2,7.7,56,30.12,10.0,NW,9.2,17.3,N/A,,Overcast,310,2013-02-16 21:15:00
3:35 PM,21.0,7.0,55,30.12,10.0,NW,10.4,16.1,N/A,,Overcast,320,2013-02-16 21:35:00
3:55 PM,20.8,5.2,51,30.12,10.0,NW,9.2,16.1,N/A,,Overcast,310,2013-02-16 21:55:00
4:15 PM,20.3,5.5,53,30.13,10.0,NW,9.2,18.4,N/A,,Overcast,310,2013-02-16 22:15:00
4:35 PM,19.8,5.0,53,30.13,10.0,NW,11.5,17.3,N/A,,Mostly Cloudy,310,2013-02-16 22:35:00
4:55 PM,19.0,4.5,53,30.14,10.0,NW,11.5,16.1,N/A,,Mostly Cloudy,320,2013-02-16 22:55:00
5:15 PM,18.5,5.0,56,30.14,10.0,NW,5.8,-,N/A,,Scattered Clouds,310,2013-02-16 23:15:00
5:35 PM,17.8,5.0,57,30.15,10.0,NNW,8.1,-,N/A,,Mostly Cloudy,340,2013-02-16 23:35:00
5:55 PM,17.4,3.9,56,30.15,10.0,North,11.5,18.4,N/A,,Mostly Cloudy,350,2013-02-16 23:55:00
6:15 PM,16.7,3.4,56,30.16,10.0,NNW,9.2,-,N/A,,Scattered Clouds,330,2013-02-17 00:15:00
6:35 PM,16.2,4.3,60,30.17,10.0,NNW,9.2,-,N/A,,Clear,340,2013-02-17 00:35:00
6:55 PM,15.8,3.6,59,30.17,10.0,North,9.2,-,N/A,,Clear,360,2013-02-17 00:55:00
7:15 PM,15.3,3.4,59,30.17,10.0,North,8.1,-,N/A,,Clear,350,2013-02-17 01:15:00
7:35 PM,14.9,3.2,60,30.18,10.0,North,8.1,-,N/A,,Clear,360,2013-02-17 01:35:00
7:55 PM,14.5,3.7,62,30.18,10.0,North,4.6,-,N/A,,Clear,350,2013-02-17 01:55:00
8:15 PM,14.4,3.7,63,30.18,10.0,NNW,3.5,-,N/A,,Clear,340,2013-02-17 02:15:00
8:35 PM,14.0,3.7,64,30.19,10.0,NNW,3.5,-,N/A,,Clear,340,2013-02-17 02:35:00
8:55 PM,14.4,3.4,62,30.19,10.0,Calm,Calm,-,N/A,,Clear,0,2013-02-17 02:55:00
9:15 PM,13.6,3.2,63,30.19,10.0,Calm,Calm,-,N/A,,Clear,0,2013-02-17 03:15:00
9:35 PM,13.6,3.2,63,30.19,10.0,Calm,Calm,-,N/A,,Clear,0,2013-02-17 03:35:00
9:55 PM,13.1,3.6,66,30.19,10.0,Calm,Calm,-,N/A,,Clear,0,2013-02-17 03:55:00
10:15 PM,13.1,3.2,65,30.19,10.0,North,3.5,-,N/A,,Clear,360,2013-02-17 04:15:00
10:35 PM,12.2,3.4,68,30.19,10.0,NNE,4.6,-,N/A,,Clear,20,2013-02-17 04:35:00
10:55 PM,12.9,3.2,65,30.18,10.0,Calm,Calm,-,N/A,,Clear,0,2013-02-17 04:55:00
11:15 PM,12.0,2.7,66,30.18,10.0,NNE,3.5,-,N/A,,Clear,20,2013-02-17 05:15:00
11:35 PM,12.2,3.2,67,30.18,10.0,Calm,Calm,-,N/A,,Clear,0,2013-02-17 05:35:00
11:55 PM,11.8,3.2,68,30.18,10.0,Calm,Calm,-,N/A,,Clear,0,2013-02-17 05:55:00